Regional Weather Roundup
Issued by NWS Sterling, VA

Home | Current Version | Previous Version | Text Only | Print | Product List | Glossary Off
Versions: 1 2 3 4 5 6 7 8 9 10 11 12 13 14 15 16 17 18 19 20 21 22 23 24 25 26 27

000
ASUS41 KLWX 170711
RWRLWX

REGIONAL WEATHER ROUNDUP
NATIONAL WEATHER SERVICE BALTIMORE MD/WASHINGTON DC
200 AM EST WED JAN 17 2018

Note: "FAIR" indicates few or no clouds below 12,000 feet
with no significant weather and/or obstructions to visibility.
 TC=TEMPERATURE CELSIUS

 * =Non NWS site. Station does not report precipitation (e.g. rain,
    snow, etc.), thunder, or fog.

DCZ001-MDZ009-015-VAZ040>042-051-053>054-170800-
WASHINGTON METRO

CITY           SKY/WX    TMP DP  RH WIND       PRES   REMARKS
WASHINGTON NAT CLOUDY    34  29  82 NW12      30.33F WCI  25
DULLES         CLOUDY    31  27  85 N10       30.33R WCI  22
ANDREWS AFB    MOCLDY    33  29  83 NW12      30.30S WCI  25
FT BELVOIR     CLOUDY    33  28  79 NW8       30.32S WCI  27
COLLEGE PARK*  CLOUDY    33  28  85 NW3       30.33R
LEESBURG*      CLOUDY    32  30  93 N10       30.34S WCI  24
MANASSAS*      MIX PCPN  32  28  85 N10       30.34R WCI  24
GAITHERSBURG*  CLOUDY    30  28  92 NW7       30.31S WCI  23

$$

MDZ006>007-011-014-170800-
BALTIMORE METRO

CITY           SKY/WX    TMP DP  RH WIND       PRES   REMARKS
BWI AIRPORT    CLOUDY    33  30  88 W6        30.31S WCI  28
MD SCIENCE CTR   N/A     36  30  79 MISG      30.30S
MARTIN STATE   CLOUDY    34  32  93 NW6       30.32S WCI  29
ANNAPOLIS      CLOUDY    36  30  79 NW6       30.30S WCI  31
FORT MEADE*    CLOUDY    32  30  93 NW5       30.34R WCI  27

$$

MDZ012-015-019>023-170800-
MARYLAND EASTERN SHORE

CITY           SKY/WX    TMP DP  RH WIND       PRES   REMARKS
OCEAN CITY     CLOUDY    37  37 100 NW5       30.26F FOG     WCI  33
SALISBURY      FAIR      36  33  89 NW3       30.27F
BAY BRIDGE AP* CLOUDY    34  30  86 NW6       30.30S FOG     WCI  29
CAMBRIDGE*       N/A     34  30  86 CALM      30.28F
EASTON*        FAIR      34  31  88 NW3       30.32F

$$

MDZ017>025-170800-
SOUTHERN MARYLAND

CITY           SKY/WX    TMP DP  RH WIND       PRES   REMARKS
PATUXENT RIVER NOT AVBL
ST INIGOES     FAIR      32  31  96 NW3       30.29F FOG
LEONARDTOWN*   CLOUDY    32  32 100 W3        30.31S

$$

MDZ003>005-170800-
NORTH CENTRAL MARYLAND

CITY           SKY/WX    TMP DP  RH WIND       PRES   REMARKS
FREDERICK*     CLOUDY    32  27  80 NW5       30.37R WCI  27
HAGERSTOWN APT FLURRIES  28  22  78 NW13      30.32S WCI  17
WESTMINSTER*   CLOUDY    30  30 100 NW5       30.29S FOG     WCI  25

$$

MDZ501>502-170800-
WESTERN MARYLAND

CITY           SKY/WX    TMP DP  RH WIND       PRES   REMARKS
OAKLAND*       CLOUDY     9   5  85 W5        30.23S VSB 3/4 WCI   0
CUMBERLAND*    FAIR      23  12  63 NW12G17   30.42S WCI  12

$$

VAZ025>031-170800-
SHENANDOAH VALLEY

CITY           SKY/WX    TMP DP  RH WIND       PRES   REMARKS
WINCHESTER*    CLOUDY    27  19  74 NW9G20    30.34F WCI  17
FRONT ROYAL*   CLOUDY    30  23  74 NE6       30.31F WCI  24
LURAY*         CLOUDY    30  28  93 NE6       30.29S WCI  24
NEW MARKET*    NOT AVBL
STAUNTON*      CLOUDY    29  25  84 N9        30.29R WCI  21
WAYNESBORO*    CLOUDY    30  25  81 N6        30.25S WCI  24

$$

WVZ021-048>050-054>055-170800-
EASTERN WEST VIRGINIA PANHANDLE

CITY           SKY/WX    TMP DP  RH WIND       PRES   REMARKS
MARTINSBURG    CLOUDY    27  22  81 NW9       30.33R WCI  18
PETERSBURG*    FLURRIES  24  16  73 N6        30.36R WCI  16

$$

VAZ036>039-050-170800-
CENTRAL FOOTHILLS

CITY           SKY/WX    TMP DP  RH WIND       PRES   REMARKS
CHARLOTTESVILL CLOUDY    35  24  64 NE7       30.27F WCI  29
CULPEPER*      LGT SNOW  33  25  72 N7        30.33S WCI  27
ORANGE*        CLOUDY    32  28  86 CALM      30.29F
GORDONSVILLE*  CLOUDY    32  29  89 NE5       30.29R WCI  28
WARRENTON*     LGT RAIN  33  26  76 N7        30.32S WCI  27

$$

VAZ055>057-170800-
NORTH AND CENTRAL PIEDMONT

CITY           SKY/WX    TMP DP  RH WIND       PRES   REMARKS
FREDERICKSBRG* FAIR      33  31  93 N8        30.31S WCI  26
STAFFORD*      CLOUDY    33  31  93 N7        30.36S WCI  27

$$

NCZ024-NYZ072-PAZ021-071-VAZ022-071-170800-
OTHER REGIONAL OBSERVATIONS

CITY           SKY/WX    TMP DP  RH WIND       PRES   REMARKS
NEW YORK CITY  CLOUDY    36  32  85 NE6       30.31F WCI  31
PHILADELPHIA   LGT RAIN  36  32  85 N10       30.29F WCI  28
PITTSBURGH     FAIR       3   0  87 W3        30.43F
ROANOKE        CLOUDY    31  20  63 NW14      30.29S WCI  21
RICHMOND       CLOUDY    34  28  79 N3        30.29S
RALEIGH        CLOUDY    35  25  66 SE3       30.27F

$$

ANZ530>537-170800-
MARINE OBSERVATIONS

STATION/POSITION TIME  TEMP    WIND        PRES
                       AIR SEA DIR/SP/G
                 (UTC) (F)     (DEG/KT/KT) (MB)
THOMAS PT LIGHT  0700   34 32  310/  9/  9   N/A
BALT KEY BRIDGE  0648          320/  9/ 10   N/A
COVE POINT       0648          330/  6/  7   N/A
LEWISETTA        0648      33  280/  3/  3   N/A
SOLOMONS ISLAND  0648      35  310/  5/  7   N/A
PINEY POINT      0648          340/  7/  7   N/A

$$





USA.gov is the U.S. government's official web portal to all federal, state and local government web resources and services.